Weather History for Doylestown, PA

Change the Weather History Date:

Saturday, October 22, 2011

  Actual Average (KTTN) Record (KTTN)
Temperature  
Mean Temperature 47 °F 52 °F  
Max Temperature 57 °F 63 °F 83 °F (1979)
Min Temperature 39 °F 42 °F 27 °F (1940)
Degree Days  
Heating Degree Days 18 13  
Month to date heating degree days 207  
Since 1 July heating degree days 272  
Cooling Degree Days 0 0  
Month to date cooling degree days 7  
Year to date cooling degree days 962  
Moisture  
Dew Point 40 °F    
Average Humidity 73    
Maximum Humidity 93    
Minimum Humidity 57    
Precipitation  
Precipitation 0.00 in 0.14 in 2.12 in (1970)
Month to date precipitation 3.00  
Year to date precipitation 38.25  
Sea Level Pressure  
Sea Level Pressure 30.09 in    
Wind  
Wind Speed 4 mph (West)    
Max Wind Speed 10 mph    
Max Gust Speed 18 mph    
Visibility 10 miles    
Events      
T = Trace of Precipitation, MM = Missing Value Source: NWS Daily Summary

Daily Weather History Graph

Daily Weather History Graph

Search for Another Location

Airport:

Trip Planner

Search our weather history database for the weather conditions in past years. The results will help you decide how hot, cold, wet, or windy it might be!

Date:

Astronomy

Oct. 22, 2011 Rise Set
Actual Time 7:18 AM EDT 6:10 PM EDT
Civil Twilight 6:50 AM EDT 6:38 PM EDT
Nautical Twilight 6:19 AM EDT 7:10 PM EDT
Astronomical Twilight 5:47 AM EDT 7:41 PM EDT
Moon 2:12 AM EDT (10/22) 3:27 PM EDT (10/22)
Length of Visible Light 11h 47m
Length of Day
10h 52m
Waning Crescent, 24% of the Moon is Illuminated
Oct 22
Waning Crescent
Oct 26
New
Nov 2
First Quarter
Nov 10
Full
Nov 18
Last Quarter

Hourly Weather History & Observations

Time (EDT) Temp. Windchill Dew Point Humidity Pressure Visibility Wind Dir Wind Speed Gust Speed Precip Events Conditions
12:54 AM 45.0 °F 43.5 °F 41.0 °F 86% 30.06 in 10.0 mi WSW 3.5 mph - N/A   Clear
1:54 AM 45.0 °F 42.6 °F 41.0 °F 86% 30.06 in 10.0 mi WSW 4.6 mph - N/A   Clear
3:54 AM 43.0 °F 41.3 °F 39.9 °F 89% 30.07 in 10.0 mi WSW 3.5 mph - N/A   Clear
4:54 AM 42.1 °F - 39.9 °F 92% 30.07 in 10.0 mi Calm Calm - N/A   Clear
5:54 AM 42.1 °F - 39.9 °F 92% 30.07 in 10.0 mi Calm Calm - N/A   Clear
6:54 AM 39.9 °F 37.8 °F 37.9 °F 93% 30.08 in 10.0 mi WSW 3.5 mph - N/A   Clear
7:54 AM 41.0 °F 39.0 °F 39.0 °F 93% 30.10 in 8.0 mi WSW 3.5 mph - N/A   Clear
8:54 AM 46.0 °F 43.9 °F 42.1 °F 86% 30.10 in 10.0 mi West 4.6 mph - N/A   Clear
9:54 AM 51.1 °F - 42.1 °F 71% 30.12 in 10.0 mi WNW 6.9 mph - N/A   Clear
10:52 AM 53.6 °F - 41.0 °F 62% 30.10 in 10.0 mi West 8.1 mph - N/A   Mostly Cloudy
10:54 AM 53.1 °F - 41.0 °F 64% 30.11 in 10.0 mi WNW 5.8 mph - N/A   Scattered Clouds
11:54 AM 55.9 °F - 41.0 °F 57% 30.11 in 10.0 mi NW 6.9 mph - N/A   Overcast
12:54 PM 54.0 °F - 39.9 °F 59% 30.09 in 10.0 mi NNW 10.4 mph 18.4 mph N/A   Mostly Cloudy
1:54 PM 55.0 °F - 41.0 °F 59% 30.08 in 10.0 mi WSW 5.8 mph - N/A   Overcast
2:54 PM 54.0 °F - 39.0 °F 57% 30.07 in 10.0 mi WSW 4.6 mph - N/A   Overcast
3:54 PM 54.0 °F - 39.9 °F 59% 30.08 in 10.0 mi West 5.8 mph - N/A   Overcast
4:54 PM 53.1 °F - 39.9 °F 61% 30.08 in 10.0 mi WNW 8.1 mph - N/A   Overcast
5:54 PM 52.0 °F - 39.0 °F 61% 30.09 in 10.0 mi Variable 3.5 mph - N/A   Overcast
6:54 PM 51.1 °F - 39.9 °F 66% 30.09 in 10.0 mi WNW 5.8 mph - N/A   Overcast
7:54 PM 50.0 °F - 39.9 °F 68% 30.11 in 10.0 mi West 3.5 mph - N/A   Overcast
8:54 PM 50.0 °F - 41.0 °F 71% 30.12 in 10.0 mi NW 3.5 mph - N/A   Overcast
9:54 PM 50.0 °F - 41.0 °F 71% 30.12 in 10.0 mi Calm Calm - N/A   Overcast
10:54 PM 50.0 °F - 39.9 °F 68% 30.12 in 10.0 mi Calm Calm - N/A   Overcast
11:54 PM 48.9 °F - 39.9 °F 71% 30.12 in 10.0 mi Calm Calm - N/A   Overcast